Regional Weather Roundup
Issued by NWS Goodland, KS

Home | Current Version | Previous Version | Graphics & Text | Print | Product List | Glossary On
Versions: 1 2 3 4 5 6 7 8 9 10 11 12 13 14 15 16 17 18 19 20 21 22 23 24 25 26 27 28 29 30 31 32 33 34 35 36 37 38 39 40 41 42 43 44 45 46 47 48 49 50
967
ASUS43 KGLD 302308
RWRGLD

GOODLAND FORECAST AREA HOURLY WEATHER ROUNDUP
NATIONAL WEATHER SERVICE GOODLAND KS
500 PM MDT FRI SEP 30 2016

...OFFICIAL OBSERVATIONS...

CITY           SKY/WX    TMP DP  RH WIND       PRES   REMARKS
GOODLAND KS    SUNNY     73  46  38 SE17      30.12S
HILL CITY KS   MOSUNNY   68  49  50 E10       30.14F
IMPERIAL NEB   MOSUNNY   71  45  39 SE13G22   30.14S
MCCOOK NEB     MOSUNNY   69  44  40 SE13      30.14S
AKRON CO       CLOUDY    71  43  36 SE14      30.15S
BURLINGTON CO  SUNNY     72  45  37 E16       30.13S
LIMON CO       SUNNY     74  41  30 N12       30.16F
$$

...UNOFFICIAL OBSERVATIONS...

CITY           SKY/WX    TMP DP  RH WIND       PRES   REMARKS
COLBY KS       SUNNY     73  48  40 E16       30.14S
LENORA KS        N/A     68  32  26 MISG        N/A
NORTON KS      SUNNY     68  43  40 E10       30.14S
SHARON SPRINGS   N/A     73  49  43 E10G20      N/A
KIT CARSON CO    N/A     78  47  33 MISG        N/A
$$




USA.gov is the U.S. government's official web portal to all federal, state and local government web resources and services.